www.pogodaiklimat.ru

ПОГОДА в Rankin Inlet

  • Прогноз погоды в Rankin Inlet
  • Монитор погоды в Rankin Inlet
  • Климат города

АРХИВ ПОГОДЫ в Rankin Inlet

Время (UTC), дата Ветер
(напр.,м/с)
 
Видим.   Явления Облачность Т
(С)
Тd
(С)
f
(%)
Тe
(С)
Тes
(С)
Комфортность P
(гПа)
Po
(гПа)
Тmin
(С)
Tmax
(С)
R
(мм)
S
(см)
18 9.01 С 3 6000 м ледяные иглы {снег} ясно -39.1 -43.1 66 -51 -51 опасность
обморожения
1009.8 1005.2 -42.7 -37.8 0.0 23
21 9.01 С 4 4000 м ясно -39.0 -43.0 66 -52 -52 опасность
обморожения
1010.3 1005.7
00 10.01 С 2 2400 м ледяные иглы {снег} ясно -40.1 -44.2 65 -48 -48 опасность
обморожения
1010.9 1006.3 -37.4 23
03 10.01 С 3 4800 м ясно -39.7 -43.7 65 -50 -50 опасность
обморожения
1011.5 1006.9
06 10.01 С 3 9000 м ледяные иглы {снег} ясно -39.7 -43.7 65 -50 -50 опасность
обморожения
1011.5 1006.9 -41.8 -37.4 0.0 23
09 10.01 С 4 16 км ясно -39.8 -43.9 65 -53 -53 опасность
обморожения
1012.1 1007.5
12 10.01 СЗ 3 24 км ледяные иглы {снег} ясно -40.8 -44.9 64 -53 -53 опасность
обморожения
1012.0 1007.4 -40.8 -37.4 0.0 23
15 10.01 З 2 16 км ясно -41.1 -45.2 64 -51 -51 опасность
обморожения
1012.7 1008.1
18 10.01 З 2 16 км ледяные иглы {снег} ясно -40.5 -44.6 65 -48 -48 опасность
обморожения
1012.6 1008.0 -41.9 -38.8 0.0 23
21 10.01 СЗ 2 8000 м 1/0
[]
-40.1 -44.2 65 -48 -48 опасность
обморожения
1012.3 1007.7
00 11.01 С 1 8000 м ледяные иглы {снег} ясно -39.5 -43.5 65 -41 -41 опасность
обморожения
1013.1 1008.5 -41.9 -38.8 0.0 23
03 11.01 В 2 16 км ясно -35.7 -39.5 68 -43 -43 опасность
обморожения
1011.9 1007.4
06 11.01 С 3 2400 м ледяные иглы {снег} 4/4 50 м
[St]
-37.2 -41.1 67 -47 -47 опасность
обморожения
1011.5 1007.0 -41.9 -35.5 0.0 23
09 11.01 СВ 3 24 км ясно -33.7 -37.4 69 -44 -44 опасность
обморожения
1011.3 1006.8
12 11.01 В 3 24 км ледяные иглы {снег} 4/0
[Ac As]
-32.2 -35.8 70 -42 -42 опасность
обморожения
1011.1 1006.6 -40.5 -35.5 0.0 23
15 11.01 СВ 5 16 км 6/0
[]
-31.2 -34.7 71 -44 -44 опасность
обморожения
1011.5 1007.0
18 11.01 СВ 5 9000 м ледяные иглы {снег} 9/0 2000 м
[Ac As]
-29.2 -32.5 73 -42 -42 опасность
обморожения
1011.5 1007.0 -41.0 -29.2 0.0 23
21 11.01 СВ 9 4800 м 9/0
[]
-28.1 -31.3 74 -44 -44 опасность
обморожения
1011.3 1006.9
00 12.01 С 9 3200 м ледяные иглы {снег} 10/0 50 м
[Ac As]
-30.1 -33.5 72 -46 -46 опасность
обморожения
1012.2 1007.8 -37.2 -28.0 0.0 23
03 12.01 С 10 4800 м 1/0
[]
-32.1 -35.6 71 -50 -50 опасность
обморожения
1012.0 1007.6
06 12.01 С 12 3200 м ледяные иглы {снег} 1/0
[Ac As]
-31.9 -35.4 71 -51 -51 опасность
обморожения
1011.5 1007.0 -37.2 -28.0 0.0 61
09 12.01 С 10 3200 м 1/0
[]
-32.9 -36.5 70 -51 -51 опасность
обморожения
1011.8 1007.3
12 12.01 С 13 3200 м ледяные иглы {снег} 3/0
[Ac As]
-34.9 -38.6 69 -55 -55 опасность
обморожения
1011.7 1007.2 -34.9 -28.0 0.0 23
15 12.01 С 9 1600 м 4/0
[]
-35.5 -39.2 69 -54 -54 опасность
обморожения
1012.0 1007.5
18 12.01 С 11 800 м ледяные иглы {снег, метель} 5/0
[Ac As]
-36.5 -40.3 68 -56 -56 опасность
обморожения
1011.2 1006.7 -36.5 -31.9 0.0 23
21 12.01 С 11 400 м 4/0
[]
-36.2 -40.0 68 -56 -56 опасность
обморожения
1012.4 1007.9
00 13.01 С 14 400 м ледяные иглы {снег, метель} 3/0
[Ci fib]
-36.2 -40.0 68 -58 -58 опасность
обморожения
1012.7 1008.2 -36.5 -34.9 0.0 23
03 13.01 СЗ 12 400 м 3/0
[]
-36.7 -40.5 68 -57 -57 опасность
обморожения
1014.0 1009.5
06 13.01 СЗ 10 1600 м ледяные иглы {снег, метель} 1/0
[Ci fib]
-37.0 -40.8 68 -56 -56 опасность
обморожения
1014.9 1010.4 -37.2 -31.9 0.0 2
09 13.01 СЗ 11 1600 м ясно -36.4 -40.2 68 -56 -56 опасность
обморожения
1016.4 1011.9
12 13.01 СЗ 7 16 км ледяные иглы {снег, метель} ясно -37.2 -41.1 67 -54 -54 опасность
обморожения
1017.8 1013.3 -37.2 -31.9 0.0 23
15 13.01 З 6 24 км ясно -38.0 -41.9 67 -54 -54 опасность
обморожения
1018.8 1014.2
18 13.01 З 7 24 км ледяные иглы {снег} ясно -37.2 -41.1 67 -54 -53 опасность
обморожения
1019.0 1014.4 -38.0 -36.4 0.0 23
21 13.01 З 4 24 км 4/4 300 м
[]
-36.6 -40.4 68 -49 -49 опасность
обморожения
1019.0 1014.4
00 14.01 З 3 24 км ледяные иглы {снег} 3/0
[Ci fib]
-37.4 -41.3 67 -48 -48 опасность
обморожения
1018.8 1014.2 -38.0 -36.3 0.0 23
03 14.01 З 3 24 км 4/0
[]
-38.2 -42.1 67 -50 -50 опасность
обморожения
1017.8 1013.2
06 14.01 СЗ 3 24 км ледяные иглы {снег} 3/0
[Ci fib]
-39.0 -43.0 66 -49 -49 опасность
обморожения
1017.0 1012.4 -39.6 -36.3 0.0 91
09 14.01 СЗ 4 24 км 3/0
[]
-38.6 -42.6 66 -51 -51 опасность
обморожения
1016.7 1012.1
12 14.01 З 2 24 км ледяные иглы {снег} 3/0
[Ci fib]
-38.4 -42.4 66 -47 -47 опасность
обморожения
1015.8 1011.2 -39.6 -36.3 0.0 23
15 14.01 З 2 24 км 4/0
[]
-39.0 -43.0 66 -48 -48 опасность
обморожения
1015.4 1010.8
18 14.01 З 4 24 км ледяные иглы {снег} 9/1 300 м
[Sc Ac As Ci fib]
-37.5 -41.4 67 -50 -50 опасность
обморожения
1014.3 1009.7 -39.6 -37.4 0.0 23
21 14.01 З 3 24 км 8/8 300 м
[]
-34.9 -38.6 69 -46 -46 опасность
обморожения
1013.5 1009.0
00 15.01 СЗ 3 24 км ледяные иглы {снег} 9/8 1000 м
[Sc Ci fib]
-33.5 -37.1 70 -44 -44 опасность
обморожения
1012.8 1008.3 -39.5 -33.4 0.0 23
03 15.01 С 5 24 км 5/5 1000 м
[]
-33.1 -36.7 70 -46 -46 опасность
обморожения
1011.3 1006.8
06 15.01 С 5 24 км ледяные иглы {снег} 4/3 1000 м
[Sc Ci fib]
-35.0 -38.7 69 -48 -48 опасность
обморожения
1009.9 1005.4 -39.5 -32.1 0.0 23
09 15.01 СЗ 4 24 км 4/4 1000 м
[]
-36.6 -40.4 68 -50 -50 опасность
обморожения
1008.9 1004.4
12 15.01 СЗ 5 24 км ледяные иглы {снег} 6/4 600 м
[Sc Ci fib]
-36.9 -40.8 67 -51 -51 опасность
обморожения
1007.7 1003.2 -36.9 -32.1 0.0 23
15 15.01 С 5 24 км 6/6 600 м
[]
-35.2 -38.9 69 -49 -49 опасность
обморожения
1007.0 1002.5
18 15.01 С 5 24 км ледяные иглы {снег} 3/1 600 м
[Sc Ac As]
-35.9 -39.7 68 -49 -49 опасность
обморожения
1007.4 1002.9 -37.8 -35.0 0.0 23
21 15.01 С 5 24 км 1/1 600 м
[]
-34.2 -37.9 69 -47 -47 опасность
обморожения
1007.8 1003.3
00 16.01 С 6 24 км ледяные иглы {снег} 1/1 600 м
[Sc]
-35.6 -39.4 68 -50 -50 опасность
обморожения
1010.6 1006.1 -37.0 -34.0 0.0 23
03 16.01 С 6 24 км ясно -36.8 -40.7 67 -52 -52 опасность
обморожения
1012.9 1008.4
06 16.01 С 4 24 км ледяные иглы {снег} ясно -36.8 -40.6 68 -50 -50 опасность
обморожения
1014.4 1009.9 -37.2 -34.0 0.0 221
09 16.01 СВ 1 24 км 3/0
[]
-36.6 -40.4 68 -42 -42 опасность
обморожения
1016.0 1011.5
12 16.01 В 2 16 км ледяные иглы {снег} 6/5 <50 м
[St Ac As]
-33.0 -36.6 70 -41 -41 опасность
обморожения
1016.0 1011.5 -37.3 -34.0 0.0 23
15 16.01 Ю 4 16 км 9/9 200 м
[]
-28.4 -31.7 73 -39 -39 опасность
обморожения
1014.6 1010.1

 

Местоположение метеостанции Rankin Inlet (Канада): широта 62.82 долгота -92.11 высота над уровнем моря 31 м.

В архиве по умолчанию представлена погода в Rankin Inlet за последнюю неделю. Архивные данные за месяц целиком и за предыдущие месяцы, начиная с января 2011 года, Вы можете получить, выбрав интересующий диапазон дат из раскрывающегося списка и нажав кнопку "Ввод!".

Внимание! Время в таблицах - всемирное. Для получения местного времени необходимо прибавить поправку, которая в Rankin Inlet равна -6 ч.

Ветер - указаны скорость ветра в м/с - средняя за 10 мин, порывы в срок и между сроками (в фигурных скобках) и направление, откуда дует ветер: С - северный, СВ - северо-восточный, В - восточный, ЮВ - юго-восточный, Ю - южный, ЮЗ - юго-западный, З - западный, СЗ - северо-западный.
Видимость - горизонтальная дальность видимости в метрах или километрах. При видимости от 1 до 10 км при отсутствии осадков обычно наблюдается дымка, при ухудшении видимости до 1 км и менее - туман. В сухую погоду видимость может ухудшаться дымом, пылью или мглою.
Явления - указаны атмосферные явления, наблюдавшиеся в срок или в последний час перед сроком; фигурными скобками обозначены явления, наблюдавшиеся между сроками (за 1-3 часа до срока); квадратными скобками обозначены град или гололедные отложения с указанием их диаметра в мм.
Облачность - указаны через наклонную черту общая и нижняя облачность в баллах и высота нижней границы облаков в метрах; квадратными скобками обозначены формы облаков: Ci - перистые, Cs - перисто-слоистые, Cc - перисто-кучевые, Ac - высококучевые, As - высокослоистые, Sc - слоисто-кучевые, Ns - слоисто-дождевые, Cu - кучевые, Cb - кучево-дождевые. Подробнее классификацию облаков см. в Атласе облаков (PDF).
T - Температура воздуха - температура, измеренная на высоте 2 м над землей.
Td - Температура точки росы - температура, при понижении до которой содержащийся в воздухе водяной пар достигнет насыщения.
f - Относительная влажность воздуха - влажноcть воздуха, измеренная на высоте 2 м над землей.
Te - Эффективная температура - температура, которую ощущает одетый по сезону человек в тени. Характеристика душности погоды. При расчете учитывается влияние влажности воздуха и скорости ветра на теплоощущения человека.
Tes - Эффективная температура на солнце - температура, которую ощущает человек, с поправкой на солнечный нагрев. Характеристика знойности погоды. Зависит от высоты солнца над горизонтом, облачности и скорости ветра. Ночью, в пасмурную погоду, а также при ветре 12 м/с и более поправка равна нулю.
P - Атмосферное давление - приведенное к уровню моря атмосферное давление.
Po - Атмосферное давление - измеренное на уровне метеостанции атмосферное давление.
Tmin - Минимальная температура - минимум температуры воздуха на высоте 2 м над землей.
Tmax - Максимальная температура - максимум температуры воздуха на высоте 2 м над землей.
R - Количество осадков - Количество выпавших осадков, мм. При наведении курсора мыши на число - период времени, за который выпало указанное количество осадков.
S - Снежный покров - Высота снежного покрова, см. При наведении курсора мыши на число - состояние снежного покрова и степень покрытия местности в баллах.